Home > Weather > Tehran > Past weeks

Flag for Iran Weather for the Past 2 Weeks in Tehran, Iran

Now
64 °F

Scattered showers. Broken clouds.


Feels Like: 64 °F
Forecast: 62 / 80 °F
Wind: 12 mph from Northeast

Location: Tehran-Mehrabad

Current Time: May 6, 2016 at 7:23:24 PM

Latest Report: May 6, 2016 at 7:00 PM


Visibility: N/A

Pressure: 30.01 "Hg (26.13 "Hg at 1179m altitude)

Humidity: 56%

Dew Point: 48 °F

Location of TehranLocation

Historic Weather in Tehran — Graph

°F

Tehran Temperature Yesterday

Maximum temperature yesterday: 88 °F (at 2:00 PM)
Minimum temperature yesterday: 70 °F (at 5:30 AM)
Average temperature yesterday: 78 °F

High & Low Weather Summary for the Past Weeks

 TemperatureHumidityPressure
High90 °F (Apr 28, 4:00 PM)58% (Apr 23, 6:30 AM)30.12 "Hg (Apr 23, 6:30 AM)
Low52 °F (Apr 23, 5:00 AM)6% (Apr 22, 2:00 PM)29.83 "Hg (May 4, 5:30 PM)
Average74 °F24%29.97 "Hg
* Reported Apr 21 5:30 PM — May 6 6:00 PM, Tehran, Weather by CustomWeather, © 2016

Note: Actual official high and low records may vary slightly from our data, if they occured in-between our weather recording intervals... More about our weather records

Advertising

Tehran Weather History for the Previous 24 Hours

Scroll right to see more
 ConditionsComfort  
Time TempWeatherWind HumidityBarometerVisibility
6:00 PM
Fri, May 6
66 °FBroken clouds.14 mph56%30.01 "HgN/A
5:30 PM70 °FRain showers. Broken clouds.35 mph50%30.04 "Hg2 mi
5:00 PM72 °FSprinkles. Broken clouds.12 mph38%30.01 "HgN/A
4:30 PM73 °FSprinkles. More clouds than sun.25 mph44%30.01 "Hg4 mi
4:00 PM79 °FSprinkles. Broken clouds.14 mph24%29.98 "HgN/A
3:30 PM82 °FBroken clouds.9 mph17%29.95 "HgN/A
3:00 PM82 °FBroken clouds.7 mph17%29.98 "HgN/A
2:30 PM82 °FBroken clouds.14 mph16%29.98 "HgN/A
2:00 PM82 °FBroken clouds.16 mph17%29.98 "HgN/A
1:30 PM82 °FPartly sunny.14 mph17%30.01 "HgN/A
1:00 PM82 °FScattered clouds.16 mph17%30.01 "HgN/A
12:30 PM82 °FScattered clouds.14 mph16%30.01 "HgN/A
12:00 PM81 °FPartly sunny.16 mph16%30.01 "HgN/A
11:30 AM79 °FPartly sunny.12 mph23%30.01 "HgN/A
11:00 AM77 °FSunny.14 mph26%30.01 "Hg10 mi
10:30 AM77 °FSunny.5 mph24%30.01 "Hg10 mi
10:00 AM77 °FScattered clouds.5 mph24%30.01 "HgN/A
9:30 AM73 °FScattered clouds.No wind27%30.04 "HgN/A
9:00 AM73 °FPartly sunny.No wind29%30.04 "HgN/A
8:30 AM73 °FSunny.No wind31%30.04 "Hg10 mi
8:00 AM70 °FSunny.No wind35%30.01 "Hg10 mi
7:30 AM66 °FClear.No wind43%30.01 "Hg10 mi
7:00 AM66 °FClear.No wind40%30.01 "Hg10 mi
6:30 AM64 °FClear.No wind43%30.01 "Hg10 mi
6:00 AM64 °FClear.No wind43%30.01 "Hg10 mi
5:30 AM64 °FClear.No wind43%30.01 "Hg10 mi
5:00 AM64 °FClear.No wind46%30.01 "Hg10 mi
4:30 AM64 °FClear.No wind46%30.01 "Hg10 mi
4:00 AM64 °FClear.No wind49%30.01 "Hg10 mi
3:30 AM66 °FClear.No wind46%30.01 "Hg10 mi
3:00 AM66 °FPassing clouds.5 mph46%30.04 "HgN/A
2:30 AM68 °FPassing clouds.5 mph43%30.04 "HgN/A
2:00 AM68 °FPassing clouds.5 mph43%30.04 "HgN/A
1:30 AM72 °FPassing clouds.5 mph31%30.04 "HgN/A
1:00 AM72 °FPassing clouds.7 mph29%30.04 "HgN/A
12:30 AM72 °FPassing clouds.7 mph29%30.04 "HgN/A
12:00 AM73 °FPassing clouds.7 mph27%30.04 "HgN/A
11:30 PM
Thu, May 5
73 °FPassing clouds.5 mph27%30.04 "HgN/A
11:00 PM73 °FOvercast.12 mph27%30.07 "HgN/A
10:30 PM75 °FLight rain. Overcast.12 mph27%30.04 "HgN/A
10:00 PM75 °FOvercast.14 mph27%30.04 "HgN/A
9:30 PM77 °FThundershowers. Overcast.14 mph21%30.04 "HgN/A
9:00 PM77 °FThundershowers. More clouds than sun.9 mph21%30.01 "HgN/A
8:30 PM77 °FOvercast.16 mph21%30.01 "HgN/A
8:00 PM77 °FMore clouds than sun.6 mph22%30.01 "HgN/A
7:30 PM77 °FMore clouds than sun.14 mph21%29.98 "HgN/A
7:00 PM77 °FMore clouds than sun.9 mph22%29.98 "HgN/A
Weather by CustomWeather, © 2016

See weather overviewHow to use our weather pages